This demonstration page uses our WeatherBlox Daily Observations layout. Learn more.

Left ArrowRight Arrow

Hourly Observations for December 21, 2021

Temp ( °F °C ) Dew Point ( °F °C ) Humidity (%) Winds ( mph kmh ) Pressure ( in mb ) Visibility ( mi km ) Precip ( " mm )
12:59 am 00:59 Mostly Cloudy 40 4.4 34 1.1 79 79 NNW 6 9 30.21 1023 10 16 0.00 0.00
1:59 am 01:59 Mostly Cloudy 41 5 34 1.1 76 76 N 3 6 30.20 1023 10 16 0.00 0.00
2:59 am 02:59 Mostly Cloudy 41 5 36 2.2 82 82 NNE 3 6 30.17 1022 10 16 0.00 0.00
3:59 am 03:59 Mostly Cloudy 42 5.6 36 2.2 79 79 N 5 7 30.16 1022 10 16 0.00 0.00
4:59 am 04:59 Mostly Cloudy 42 5.6 37 2.8 82 82 N 6 9 30.14 1021 10 16 0.00 0.00
5:59 am 05:59 Mostly Cloudy 43 6.1 38 3.3 82 82 N 6 9 30.14 1021 10 16 0.00 0.00
6:59 am 06:59 Cloudy 43 6.1 37 2.8 80 80 NNE 6 9 30.14 1021 10 16 0.00 0.00
7:59 am 07:59 Mostly Cloudy 44 6.7 39 3.9 83 83 NNE 10 17 30.14 1021 10 16 0.00 0.00
8:59 am 08:59 Mostly Cloudy 45 7.2 41 5 86 86 NNE 8 13 30.13 1020 10 16 0.00 0.00
9:59 am 09:59 Mostly Cloudy 45 7.2 40 4.4 83 83 NE 10 17 30.14 1021 10 16 0.00 0.00
10:59 am 10:59 Mostly Cloudy 46 7.8 39 3.9 77 77 NE 10 17 30.12 1020 10 16 0.00 0.00
11:59 am 11:59 Mostly Cloudy 47 8.3 40 4.4 77 77 NE 10 17 30.06 1018 10 16 0.00 0.00
12:59 pm 12:59 Cloudy 47 8.3 40 4.4 77 77 NE 9 15 30.01 1016 10 16 0.00 0.00
1:59 pm 13:59 Cloudy 47 8.3 40 4.4 77 77 NE 9 15 29.98 1015 10 16 0.00 0.00
2:59 pm 14:59 Cloudy 47 8.3 42 5.6 83 83 ENE 12 19 29.95 1014 10 16 0.00 0.00
3:59 pm 15:59 Cloudy 47 8.3 44 6.7 90 90 NE 10 17 29.95 1014 10 16 0.00 0.00
4:25 pm 16:25 Cloudy 48 8.9 44 6.7 86 86 NE 10 17 29.94 1014 10 16 0.00 0.00
4:59 pm 16:59 Cloudy 48 8.9 46 7.8 93 93 NE 10 17 29.91 1013 10 16 0.00 0.00
5:26 pm 17:26 Cloudy 48 8.9 46 7.8 93 93 NE 13 20 29.90 1013 10 16 0.00 0.00
5:59 pm 17:59 Cloudy 48 8.9 46 7.8 93 93 NE 10 17 29.88 1012 10 16 0.00 0.00
6:59 pm 18:59 Cloudy 49 9.4 47 8.3 93 93 NNE 8 13 29.86 1011 9 14 0.00 0.00
7:59 pm 19:59 Cloudy with Light Rain 49 9.4 48 8.9 97 97 N 7 11 29.85 1011 6 10 0.01 0.25
8:37 pm 20:37 Cloudy with Light Rain 48 8.9 48 8.9 100 100 NNE 8 13 29.83 1010 6 10 0.01 0.25
8:59 pm 20:59 Cloudy with Light Rain 48 8.9 47 8.3 96 96 N 12 19 29.82 1010 6 10 0.01 0.25
9:59 pm 21:59 Cloudy 47 8.3 45 7.2 93 93 N 12 19 29.77 1008 10 16 0.01 0.25
10:37 pm 22:37 Cloudy 47 8.3 44 6.7 90 90 N 10 17 29.77 1008 10 16 0.01 0.25
10:59 pm 22:59 Cloudy 46 7.8 44 6.7 93 93 N 12 19 29.76 1008 10 16 0.01 0.25
11:59 pm 23:59 Cloudy 45 7.2 42 5.6 90 90 N 12 19 29.72 1006 10 16 0.00 0.00

Powered by AerisWeather